Time,TemperatureF,DewpointF,PressureIn,WindDirection,WindDirectionDegrees,WindSpeedMPH,WindSpeedGustMPH,Humidity,HourlyPrecipIn,Conditions,Clouds,dailyrainin,SoftwareType,DateUTC
2013-03-04 00:00:00,50.4,43.3,30.04,NW,315,6.0,10.0,77,0.00,,,0.00,meteohub,2013-03-04 05:00:00,
2013-03-04 00:01:00,50.2,43.3,30.04,North,0,5.0,8.0,77,0.00,,,0.00,meteohub,2013-03-04 05:01:00,
2013-03-04 00:06:00,50.0,43.2,30.04,NW,315,4.0,8.0,77,0.00,,,0.00,meteohub,2013-03-04 05:06:00,
2013-03-04 00:11:00,50.0,43.2,30.04,NW,315,3.0,8.0,77,0.00,,,0.00,meteohub,2013-03-04 05:11:00,
2013-03-04 00:16:00,49.8,43.0,30.04,North,0,6.0,8.0,77,0.00,,,0.00,meteohub,2013-03-04 05:16:00,
2013-03-04 00:22:00,49.6,42.8,30.04,NW,315,9.0,9.0,77,0.00,,,0.00,meteohub,2013-03-04 05:22:00,
2013-03-04 00:27:00,49.5,42.6,30.04,NW,315,4.0,9.0,77,0.00,,,0.00,meteohub,2013-03-04 05:27:00,
2013-03-04 00:32:00,49.3,42.4,30.04,West,270,2.0,10.0,77,0.00,,,0.00,meteohub,2013-03-04 05:32:00,
2013-03-04 00:37:00,49.3,42.4,30.04,West,270,4.0,10.0,77,0.00,,,0.00,meteohub,2013-03-04 05:37:00,
2013-03-04 00:42:00,49.3,42.4,30.04,NW,315,8.0,9.0,77,0.00,,,0.00,meteohub,2013-03-04 05:42:00,
2013-03-04 00:47:00,49.3,42.4,30.03,NW,315,8.0,8.0,77,0.00,,,0.00,meteohub,2013-03-04 05:47:00,
2013-03-04 00:52:00,48.9,42.1,30.03,North,0,8.0,10.0,77,0.00,,,0.00,meteohub,2013-03-04 05:52:00,
2013-03-04 00:57:00,48.9,42.1,30.03,North,0,11.0,13.0,77,0.00,,,0.00,meteohub,2013-03-04 05:57:00,
2013-03-04 01:02:00,48.9,41.7,30.03,NW,315,11.0,13.0,76,0.00,,,0.00,meteohub,2013-03-04 06:02:00,
2013-03-04 01:07:00,49.1,41.9,30.03,NW,315,7.0,13.0,76,0.00,,,0.00,meteohub,2013-03-04 06:07:00,
2013-03-04 01:12:00,48.9,41.7,30.04,North,0,5.0,14.0,76,0.00,,,0.00,meteohub,2013-03-04 06:12:00,
2013-03-04 01:17:00,48.7,41.9,30.03,NW,315,6.0,14.0,77,0.00,,,0.00,meteohub,2013-03-04 06:17:00,
2013-03-04 01:22:00,48.6,41.7,30.04,NW,315,8.0,11.0,77,0.00,,,0.00,meteohub,2013-03-04 06:22:00,
2013-03-04 01:27:00,48.4,41.9,30.03,North,0,4.0,10.0,78,0.00,,,0.00,meteohub,2013-03-04 06:27:00,
2013-03-04 01:32:00,48.2,41.7,30.04,NW,315,8.0,10.0,78,0.00,,,0.00,meteohub,2013-03-04 06:32:00,
2013-03-04 01:37:00,48.0,41.9,30.04,North,0,9.0,10.0,79,0.00,,,0.00,meteohub,2013-03-04 06:37:00,
2013-03-04 01:42:00,47.8,41.7,30.04,NW,315,9.0,9.0,79,0.00,,,0.00,meteohub,2013-03-04 06:42:00,
2013-03-04 01:47:00,47.5,41.5,30.04,NW,315,7.0,9.0,80,0.00,,,0.00,meteohub,2013-03-04 06:47:00,
2013-03-04 01:52:00,47.5,41.5,30.03,NW,315,4.0,9.0,80,0.00,,,0.00,meteohub,2013-03-04 06:52:00,
2013-03-04 01:58:00,47.1,41.4,30.03,NW,315,7.0,9.0,80,0.00,,,0.00,meteohub,2013-03-04 06:58:00,
2013-03-04 02:03:00,47.1,41.5,30.03,NW,315,7.0,11.0,81,0.00,,,0.00,meteohub,2013-03-04 07:03:00,
2013-03-04 02:08:00,46.9,41.4,30.03,West,270,3.0,11.0,81,0.00,,,0.00,meteohub,2013-03-04 07:08:00,
2013-03-04 02:13:00,46.8,41.5,30.04,NW,315,4.0,11.0,82,0.00,,,0.00,meteohub,2013-03-04 07:13:00,
2013-03-04 02:18:00,46.6,41.4,30.03,NW,315,3.0,10.0,82,0.00,,,0.00,meteohub,2013-03-04 07:18:00,
2013-03-04 02:23:00,46.4,41.2,30.03,NW,315,5.0,10.0,82,0.00,,,0.00,meteohub,2013-03-04 07:23:00,
2013-03-04 02:28:00,46.4,41.2,30.02,NW,315,4.0,8.0,82,0.00,,,0.00,meteohub,2013-03-04 07:28:00,
2013-03-04 02:33:00,46.4,40.8,30.03,North,0,4.0,8.0,81,0.00,,,0.00,meteohub,2013-03-04 07:33:00,
2013-03-04 02:38:00,46.2,40.5,30.03,SW,225,5.0,8.0,80,0.00,,,0.00,meteohub,2013-03-04 07:38:00,
2013-03-04 02:44:00,46.2,40.5,30.03,NW,315,8.0,8.0,80,0.00,,,0.00,meteohub,2013-03-04 07:44:00,
2013-03-04 02:49:00,46.2,40.5,30.02,NW,315,7.0,8.0,80,0.00,,,0.00,meteohub,2013-03-04 07:49:00,
2013-03-04 02:54:00,46.2,40.1,30.02,North,0,4.0,8.0,79,0.00,,,0.00,meteohub,2013-03-04 07:54:00,
2013-03-04 02:59:00,46.2,40.1,30.02,NW,315,3.0,8.0,79,0.00,,,0.00,meteohub,2013-03-04 07:59:00,
2013-03-04 03:04:00,46.0,40.3,30.02,NW,315,5.0,7.0,80,0.00,,,0.00,meteohub,2013-03-04 08:04:00,
2013-03-04 03:09:00,45.9,40.1,30.02,West,270,4.0,8.0,80,0.00,,,0.00,meteohub,2013-03-04 08:09:00,
2013-03-04 03:14:00,45.7,39.9,30.02,SW,225,2.0,8.0,80,0.00,,,0.00,meteohub,2013-03-04 08:14:00,
2013-03-04 03:19:00,45.7,40.1,30.02,North,0,7.0,8.0,81,0.00,,,0.00,meteohub,2013-03-04 08:19:00,
2013-03-04 03:25:00,45.5,40.1,30.02,NW,315,3.0,7.0,81,0.00,,,0.00,meteohub,2013-03-04 08:25:00,
2013-03-04 03:30:00,45.5,40.1,30.02,North,0,4.0,7.0,81,0.00,,,0.00,meteohub,2013-03-04 08:30:00,
2013-03-04 03:35:00,45.3,39.9,30.02,NW,315,4.0,10.0,81,0.00,,,0.00,meteohub,2013-03-04 08:35:00,
2013-03-04 03:40:00,45.5,40.1,30.02,North,0,4.0,10.0,81,0.00,,,0.00,meteohub,2013-03-04 08:40:00,
2013-03-04 03:45:00,45.3,39.6,30.02,North,0,4.0,11.0,80,0.00,,,0.00,meteohub,2013-03-04 08:45:00,
2013-03-04 03:51:00,45.3,39.2,30.03,NE,45,6.0,11.0,79,0.00,,,0.00,meteohub,2013-03-04 08:51:00,
2013-03-04 03:56:00,45.1,39.0,30.03,NW,315,3.0,11.0,79,0.00,,,0.00,meteohub,2013-03-04 08:56:00,
2013-03-04 04:01:00,45.1,38.7,30.03,NW,315,3.0,14.0,78,0.00,,,0.00,meteohub,2013-03-04 09:01:00,
2013-03-04 04:06:00,45.0,38.5,30.03,North,0,4.0,14.0,78,0.00,,,0.00,meteohub,2013-03-04 09:06:00,
2013-03-04 04:11:00,44.8,38.3,30.03,NW,315,8.0,14.0,78,0.00,,,0.00,meteohub,2013-03-04 09:11:00,
2013-03-04 04:16:00,44.8,37.9,30.03,NW,315,5.0,11.0,77,0.00,,,0.00,meteohub,2013-03-04 09:16:00,
2013-03-04 04:21:00,44.8,38.3,30.04,West,270,4.0,11.0,78,0.00,,,0.00,meteohub,2013-03-04 09:21:00,
2013-03-04 04:27:00,44.8,38.3,30.03,NW,315,4.0,9.0,78,0.00,,,0.00,meteohub,2013-03-04 09:27:00,
2013-03-04 04:32:00,44.6,38.1,30.04,North,0,4.0,10.0,78,0.00,,,0.00,meteohub,2013-03-04 09:32:00,
2013-03-04 04:37:00,44.6,38.1,30.03,North,0,4.0,10.0,78,0.00,,,0.00,meteohub,2013-03-04 09:37:00,
2013-03-04 04:42:00,44.4,37.6,30.04,NW,315,5.0,10.0,77,0.00,,,0.00,meteohub,2013-03-04 09:42:00,
2013-03-04 04:47:00,44.4,37.6,30.04,NW,315,5.0,8.0,77,0.00,,,0.00,meteohub,2013-03-04 09:47:00,
2013-03-04 04:52:00,44.2,37.6,30.04,North,0,4.0,10.0,77,0.00,,,0.00,meteohub,2013-03-04 09:52:00,
2013-03-04 04:57:00,44.2,37.6,30.04,NW,315,2.0,10.0,77,0.00,,,0.00,meteohub,2013-03-04 09:57:00,
2013-03-04 05:02:00,44.1,37.4,30.05,WNW,293,5.0,10.0,77,0.00,,,0.00,meteohub,2013-03-04 10:02:00,
2013-03-04 05:07:00,44.1,37.4,30.05,NW,315,2.0,8.0,77,0.00,,,0.00,meteohub,2013-03-04 10:07:00,
2013-03-04 05:12:00,44.2,37.2,30.04,NW,315,6.0,8.0,76,0.00,,,0.00,meteohub,2013-03-04 10:12:00,
2013-03-04 05:17:00,44.2,37.2,30.05,North,0,4.0,8.0,76,0.00,,,0.00,meteohub,2013-03-04 10:17:00,
2013-03-04 05:22:00,45.0,37.9,30.06,NW,315,7.0,8.0,76,0.00,,,0.00,meteohub,2013-03-04 10:22:00,
2013-03-04 05:27:00,44.2,37.2,30.06,North,0,4.0,8.0,76,0.00,,,0.00,meteohub,2013-03-04 10:27:00,
2013-03-04 05:32:00,44.2,37.2,30.06,NW,315,4.0,8.0,76,0.00,,,0.00,meteohub,2013-03-04 10:32:00,
2013-03-04 05:37:00,44.2,36.9,30.06,North,0,3.0,8.0,75,0.00,,,0.00,meteohub,2013-03-04 10:37:00,
2013-03-04 05:42:00,44.2,36.9,30.06,NW,315,4.0,7.0,75,0.00,,,0.00,meteohub,2013-03-04 10:42:00,
2013-03-04 05:47:00,44.2,36.9,30.06,NW,315,7.0,8.0,75,0.00,,,0.00,meteohub,2013-03-04 10:47:00,
2013-03-04 05:52:00,44.2,36.9,30.07,North,0,4.0,8.0,75,0.00,,,0.00,meteohub,2013-03-04 10:52:00,
2013-03-04 05:57:00,44.1,36.7,30.07,NW,315,2.0,8.0,75,0.00,,,0.00,meteohub,2013-03-04 10:57:00,
2013-03-04 06:02:00,43.9,36.9,30.07,NW,315,6.0,7.0,76,0.00,,,0.00,meteohub,2013-03-04 11:02:00,
2013-03-04 06:07:00,43.9,36.5,30.06,NW,315,3.0,6.0,75,0.00,,,0.00,meteohub,2013-03-04 11:07:00,
2013-03-04 06:12:00,43.9,36.5,30.06,NW,315,2.0,6.0,75,0.00,,,0.00,meteohub,2013-03-04 11:12:00,
2013-03-04 06:17:00,43.5,36.5,30.07,North,0,2.0,6.0,76,0.00,,,0.00,meteohub,2013-03-04 11:17:00,
2013-03-04 06:22:00,43.5,36.9,30.07,NW,315,4.0,5.0,77,0.00,,,0.00,meteohub,2013-03-04 11:22:00,
2013-03-04 06:27:00,43.5,36.9,30.07,North,0,5.0,5.0,77,0.00,,,0.00,meteohub,2013-03-04 11:27:00,
2013-03-04 06:32:00,43.3,36.7,30.08,NW,315,3.0,5.0,77,0.00,,,0.00,meteohub,2013-03-04 11:32:00,
2013-03-04 06:37:00,43.2,36.7,30.08,North,0,2.0,5.0,78,0.00,,,0.00,meteohub,2013-03-04 11:37:00,
2013-03-04 06:42:00,43.2,37.0,30.08,NW,315,1.0,5.0,79,0.00,,,0.00,meteohub,2013-03-04 11:42:00,
2013-03-04 06:47:00,43.0,36.9,30.09,NW,315,2.0,4.0,79,0.00,,,0.00,meteohub,2013-03-04 11:47:00,
2013-03-04 06:52:00,43.0,36.9,30.08,NW,315,3.0,4.0,79,0.00,,,0.00,meteohub,2013-03-04 11:52:00,
2013-03-04 06:57:00,43.9,37.8,30.09,West,270,2.0,4.0,79,0.00,,,0.00,meteohub,2013-03-04 11:57:00,
2013-03-04 07:02:00,45.0,38.5,30.09,NW,315,2.0,4.0,78,0.00,,,0.00,meteohub,2013-03-04 12:02:00,
2013-03-04 07:07:00,45.9,38.3,30.09,NW,315,1.0,4.0,75,0.00,,,0.00,meteohub,2013-03-04 12:07:00,
2013-03-04 07:12:00,46.9,39.0,30.09,NW,315,2.0,4.0,74,0.00,,,0.00,meteohub,2013-03-04 12:12:00,
2013-03-04 07:17:00,48.0,39.0,30.09,North,0,4.0,4.0,71,0.00,,,0.00,meteohub,2013-03-04 12:17:00,
2013-03-04 07:22:00,48.2,38.8,30.09,North,0,5.0,5.0,70,0.00,,,0.00,meteohub,2013-03-04 12:22:00,
2013-03-04 07:27:00,48.6,38.8,30.10,North,0,4.0,6.0,69,0.00,,,0.00,meteohub,2013-03-04 12:27:00,
2013-03-04 07:32:00,49.5,39.7,30.10,North,0,2.0,7.0,69,0.00,,,0.00,meteohub,2013-03-04 12:32:00,
2013-03-04 07:37:00,50.4,39.4,30.10,North,0,5.0,7.0,66,0.00,,,0.00,meteohub,2013-03-04 12:37:00,
2013-03-04 07:42:00,50.4,39.0,30.10,North,0,8.0,8.0,65,0.00,,,0.00,meteohub,2013-03-04 12:42:00,
2013-03-04 07:47:00,50.7,39.4,30.10,NW,315,4.0,8.0,65,0.00,,,0.00,meteohub,2013-03-04 12:47:00,
2013-03-04 07:52:00,51.4,39.2,30.10,NW,315,6.0,8.0,63,0.00,,,0.00,meteohub,2013-03-04 12:52:00,
2013-03-04 07:57:00,52.2,39.9,30.10,NW,315,4.0,8.0,63,0.00,,,0.00,meteohub,2013-03-04 12:57:00,
2013-03-04 08:02:00,52.3,38.8,30.10,West,270,4.0,6.0,60,0.00,,,0.00,meteohub,2013-03-04 13:02:00,
2013-03-04 08:07:00,53.1,39.9,30.10,North,0,2.0,8.0,61,0.00,,,0.00,meteohub,2013-03-04 13:07:00,
2013-03-04 08:12:00,53.4,39.9,30.11,North,0,3.0,8.0,60,0.00,,,0.00,meteohub,2013-03-04 13:12:00,
2013-03-04 08:17:00,53.4,39.4,30.11,NW,315,5.0,8.0,59,0.00,,,0.00,meteohub,2013-03-04 13:17:00,
2013-03-04 08:23:00,53.8,39.7,30.11,NW,315,2.0,7.0,59,0.00,,,0.00,meteohub,2013-03-04 13:23:00,
2013-03-04 08:28:00,54.7,39.4,30.11,North,0,8.0,8.0,56,0.00,,,0.00,meteohub,2013-03-04 13:28:00,
2013-03-04 08:33:00,54.5,40.1,30.11,North,0,5.0,8.0,58,0.00,,,0.00,meteohub,2013-03-04 13:33:00,
2013-03-04 08:38:00,55.4,40.5,30.10,North,0,3.0,8.0,57,0.00,,,0.00,meteohub,2013-03-04 13:38:00,
2013-03-04 08:43:00,55.0,39.2,30.11,West,270,4.0,9.0,55,0.00,,,0.00,meteohub,2013-03-04 13:43:00,
2013-03-04 08:48:00,55.9,39.6,30.11,NW,315,5.0,11.0,54,0.00,,,0.00,meteohub,2013-03-04 13:48:00,
2013-03-04 08:53:00,55.6,38.3,30.11,North,0,9.0,11.0,52,0.00,,,0.00,meteohub,2013-03-04 13:53:00,
2013-03-04 08:58:00,55.0,38.3,30.10,NW,315,7.0,11.0,53,0.00,,,0.00,meteohub,2013-03-04 13:58:00,
2013-03-04 09:03:00,55.0,38.3,30.11,NW,315,8.0,11.0,53,0.00,,,0.00,meteohub,2013-03-04 14:03:00,
2013-03-04 09:08:00,54.9,38.1,30.11,NW,315,8.0,11.0,53,0.00,,,0.00,meteohub,2013-03-04 14:08:00,
2013-03-04 09:14:00,55.2,38.3,30.11,North,0,7.0,11.0,53,0.00,,,0.00,meteohub,2013-03-04 14:14:00,
2013-03-04 09:19:00,56.5,39.0,30.11,NW,315,9.0,13.0,52,0.00,,,0.00,meteohub,2013-03-04 14:19:00,
2013-03-04 09:25:00,56.8,38.5,30.11,West,270,10.0,13.0,50,0.00,,,0.00,meteohub,2013-03-04 14:25:00,
2013-03-04 09:30:00,57.2,39.2,30.11,North,0,5.0,10.0,51,0.00,,,0.00,meteohub,2013-03-04 14:30:00,
2013-03-04 09:35:00,57.0,38.5,30.12,North,0,9.0,11.0,50,0.00,,,0.00,meteohub,2013-03-04 14:35:00,
2013-03-04 09:40:00,57.0,38.5,30.11,NW,315,4.0,11.0,50,0.00,,,0.00,meteohub,2013-03-04 14:40:00,
2013-03-04 09:45:00,58.3,38.7,30.11,NW,315,4.0,11.0,48,0.00,,,0.00,meteohub,2013-03-04 14:45:00,
2013-03-04 09:50:00,59.0,38.3,30.11,North,0,10.0,11.0,46,0.00,,,0.00,meteohub,2013-03-04 14:50:00,
2013-03-04 09:56:00,58.6,38.5,30.11,North,0,3.0,10.0,47,0.00,,,0.00,meteohub,2013-03-04 14:56:00,
2013-03-04 10:01:00,59.2,39.0,30.10,NW,315,4.0,10.0,47,0.00,,,0.00,meteohub,2013-03-04 15:01:00,
2013-03-04 10:06:00,60.1,38.7,30.11,NE,45,8.0,10.0,45,0.00,,,0.00,meteohub,2013-03-04 15:06:00,
2013-03-04 10:11:00,60.6,39.7,30.10,NW,315,3.0,9.0,46,0.00,,,0.00,meteohub,2013-03-04 15:11:00,
2013-03-04 10:16:00,60.8,38.1,30.11,NW,315,7.0,9.0,43,0.00,,,0.00,meteohub,2013-03-04 15:16:00,
2013-03-04 10:21:00,60.4,38.5,30.10,North,0,4.0,11.0,44,0.00,,,0.00,meteohub,2013-03-04 15:21:00,
2013-03-04 10:26:00,59.9,37.9,30.10,West,270,7.0,11.0,44,0.00,,,0.00,meteohub,2013-03-04 15:26:00,
2013-03-04 10:31:00,59.9,37.4,30.10,North,0,8.0,11.0,43,0.00,,,0.00,meteohub,2013-03-04 15:31:00,
2013-03-04 10:37:00,60.4,38.5,30.10,North,0,4.0,9.0,44,0.00,,,0.00,meteohub,2013-03-04 15:37:00,
2013-03-04 10:42:00,60.6,38.7,30.10,North,0,9.0,9.0,44,0.00,,,0.00,meteohub,2013-03-04 15:42:00,
2013-03-04 10:47:00,61.0,38.8,30.10,NW,315,4.0,9.0,44,0.00,,,0.00,meteohub,2013-03-04 15:47:00,
2013-03-04 10:52:00,60.6,37.4,30.10,North,0,5.0,9.0,42,0.00,,,0.00,meteohub,2013-03-04 15:52:00,
2013-03-04 10:57:00,61.5,37.0,30.11,North,0,9.0,10.0,40,0.00,,,0.00,meteohub,2013-03-04 15:57:00,
2013-03-04 11:02:00,61.0,37.8,30.11,NW,315,5.0,10.0,42,0.00,,,0.00,meteohub,2013-03-04 16:02:00,
2013-03-04 11:07:00,61.5,37.0,30.11,North,0,5.0,10.0,40,0.00,,,0.00,meteohub,2013-03-04 16:07:00,
2013-03-04 11:12:00,61.9,36.7,30.10,North,0,4.0,10.0,39,0.00,,,0.00,meteohub,2013-03-04 16:12:00,
2013-03-04 11:17:00,61.5,37.0,30.10,NW,315,8.0,8.0,40,0.00,,,0.00,meteohub,2013-03-04 16:17:00,
2013-03-04 11:22:00,61.9,37.2,30.11,North,0,4.0,9.0,40,0.00,,,0.00,meteohub,2013-03-04 16:22:00,
2013-03-04 11:27:00,63.7,38.3,30.11,NW,315,5.0,13.0,39,0.00,,,0.00,meteohub,2013-03-04 16:27:00,
2013-03-04 11:32:00,63.1,35.8,30.10,NW,315,5.0,13.0,36,0.00,,,0.00,meteohub,2013-03-04 16:32:00,
2013-03-04 11:37:00,63.9,37.8,30.10,NW,315,4.0,8.0,38,0.00,,,0.00,meteohub,2013-03-04 16:37:00,
2013-03-04 11:42:00,65.3,38.3,30.10,NW,315,2.0,8.0,37,0.00,,,0.00,meteohub,2013-03-04 16:42:00,
2013-03-04 11:47:00,65.8,34.3,30.10,NW,315,7.0,8.0,31,0.00,,,0.00,meteohub,2013-03-04 16:47:00,
2013-03-04 11:52:00,65.3,35.4,30.10,West,270,3.0,7.0,33,0.00,,,0.00,meteohub,2013-03-04 16:52:00,
2013-03-04 11:57:00,65.7,35.8,30.09,North,0,4.0,7.0,33,0.00,,,0.00,meteohub,2013-03-04 16:57:00,
2013-03-04 12:03:00,66.2,37.8,30.09,West,270,2.0,7.0,35,0.00,,,0.00,meteohub,2013-03-04 17:03:00,
2013-03-04 12:08:00,66.2,35.4,30.08,NW,315,6.0,9.0,32,0.00,,,0.00,meteohub,2013-03-04 17:08:00,
2013-03-04 12:13:00,65.5,36.3,30.08,North,0,1.0,9.0,34,0.00,,,0.00,meteohub,2013-03-04 17:13:00,
2013-03-04 12:18:00,67.3,37.2,30.08,SW,225,2.0,9.0,33,0.00,,,0.00,meteohub,2013-03-04 17:18:00,
2013-03-04 12:23:00,68.2,33.8,30.07,NW,315,7.0,8.0,28,0.00,,,0.00,meteohub,2013-03-04 17:23:00,
2013-03-04 12:28:00,67.3,34.0,30.07,NW,315,4.0,8.0,29,0.00,,,0.00,meteohub,2013-03-04 17:28:00,
2013-03-04 12:33:00,67.6,36.7,30.07,West,270,2.0,7.0,32,0.00,,,0.00,meteohub,2013-03-04 17:33:00,
2013-03-04 12:38:00,68.0,33.6,30.06,West,270,3.0,7.0,28,0.00,,,0.00,meteohub,2013-03-04 17:38:00,
2013-03-04 12:44:00,68.5,35.1,30.06,NE,45,4.0,5.0,29,0.00,,,0.00,meteohub,2013-03-04 17:44:00,
2013-03-04 12:49:00,69.6,34.2,30.06,North,0,3.0,5.0,27,0.00,,,0.00,meteohub,2013-03-04 17:49:00,
2013-03-04 12:54:00,70.2,32.7,30.06,West,270,4.0,5.0,25,0.00,,,0.00,meteohub,2013-03-04 17:54:00,
2013-03-04 12:59:00,70.0,36.3,30.05,West,270,1.0,7.0,29,0.00,,,0.00,meteohub,2013-03-04 17:59:00,
2013-03-04 13:04:00,70.0,34.5,30.05,NE,45,2.0,7.0,27,0.00,,,0.00,meteohub,2013-03-04 18:04:00,
2013-03-04 13:09:00,69.8,35.2,30.05,North,0,2.0,7.0,28,0.00,,,0.00,meteohub,2013-03-04 18:09:00,
2013-03-04 13:14:00,70.2,34.7,30.05,North,0,1.0,4.0,27,0.00,,,0.00,meteohub,2013-03-04 18:14:00,
2013-03-04 13:19:00,70.9,32.4,30.05,West,270,4.0,4.0,24,0.00,,,0.00,meteohub,2013-03-04 18:19:00,
2013-03-04 13:24:00,70.5,34.0,30.05,South,180,2.0,5.0,26,0.00,,,0.00,meteohub,2013-03-04 18:24:00,
2013-03-04 13:29:00,70.5,34.0,30.05,North,0,3.0,5.0,26,0.00,,,0.00,meteohub,2013-03-04 18:29:00,
2013-03-04 13:30:00,70.5,34.9,30.05,West,270,2.0,5.0,27,0.00,,,0.00,meteohub,2013-03-04 18:30:00,
2013-03-04 13:31:00,70.5,32.0,30.05,NW,315,5.0,5.0,24,0.00,,,0.00,meteohub,2013-03-04 18:31:00,
2013-03-04 13:32:00,70.3,33.8,30.04,West,270,2.0,5.0,26,0.00,,,0.00,meteohub,2013-03-04 18:32:00,
2013-03-04 13:37:00,70.7,35.1,30.04,NW,315,1.0,5.0,27,0.00,,,0.00,meteohub,2013-03-04 18:37:00,
2013-03-04 13:43:00,70.2,32.7,30.04,SW,225,3.0,6.0,25,0.00,,,0.00,meteohub,2013-03-04 18:43:00,
2013-03-04 13:48:00,70.7,34.2,30.04,NW,315,4.0,6.0,26,0.00,,,0.00,meteohub,2013-03-04 18:48:00,
2013-03-04 13:53:00,70.5,30.9,30.03,North,0,6.0,6.0,23,0.00,,,0.00,meteohub,2013-03-04 18:53:00,
2013-03-04 13:58:00,70.5,32.0,30.03,North,0,2.0,6.0,24,0.00,,,0.00,meteohub,2013-03-04 18:58:00,
2013-03-04 14:03:00,70.7,30.0,30.04,West,270,4.0,6.0,22,0.00,,,0.00,meteohub,2013-03-04 19:03:00,
2013-03-04 14:08:00,70.0,31.5,30.03,North,0,5.0,6.0,24,0.00,,,0.00,meteohub,2013-03-04 19:08:00,
2013-03-04 14:13:00,70.0,32.5,30.02,NW,315,4.0,6.0,25,0.00,,,0.00,meteohub,2013-03-04 19:13:00,
2013-03-04 14:19:00,70.3,31.8,30.02,NW,315,3.0,6.0,24,0.00,,,0.00,meteohub,2013-03-04 19:19:00,
2013-03-04 14:24:00,69.6,32.2,30.03,SW,225,4.0,5.0,25,0.00,,,0.00,meteohub,2013-03-04 19:24:00,
2013-03-04 14:29:00,69.3,35.6,30.02,SE,135,1.0,5.0,29,0.00,,,0.00,meteohub,2013-03-04 19:29:00,
2013-03-04 14:34:00,70.2,33.6,30.02,NW,315,5.0,5.0,26,0.00,,,0.00,meteohub,2013-03-04 19:34:00,
2013-03-04 14:39:00,70.9,33.3,30.02,SW,225,2.0,5.0,25,0.00,,,0.00,meteohub,2013-03-04 19:39:00,
2013-03-04 14:44:00,71.6,31.8,30.02,NW,315,2.0,5.0,23,0.00,,,0.00,meteohub,2013-03-04 19:44:00,
2013-03-04 14:50:00,71.2,33.6,30.02,East,90,4.0,5.0,25,0.00,,,0.00,meteohub,2013-03-04 19:50:00,
2013-03-04 14:55:00,70.5,34.0,30.02,South,180,3.0,8.0,26,0.00,,,0.00,meteohub,2013-03-04 19:55:00,
2013-03-04 15:00:00,71.6,31.8,30.01,North,0,2.0,8.0,23,0.00,,,0.00,meteohub,2013-03-04 20:00:00,
2013-03-04 15:05:00,72.0,29.8,30.01,SE,135,2.0,6.0,21,0.00,,,0.00,meteohub,2013-03-04 20:05:00,
2013-03-04 15:10:00,72.7,26.8,30.02,North,0,3.0,6.0,18,0.00,,,0.00,meteohub,2013-03-04 20:10:00,
2013-03-04 15:15:00,73.4,28.6,30.01,NW,315,4.0,6.0,19,0.00,,,0.00,meteohub,2013-03-04 20:15:00,
2013-03-04 15:21:00,74.7,28.4,30.01,North,0,4.0,5.0,18,0.00,,,0.00,meteohub,2013-03-04 20:21:00,
2013-03-04 15:26:00,76.1,26.6,30.01,SW,225,2.0,4.0,16,0.00,,,0.00,meteohub,2013-03-04 20:26:00,
2013-03-04 15:31:00,76.5,31.1,30.01,NW,315,2.0,4.0,19,0.00,,,0.00,meteohub,2013-03-04 20:31:00,
2013-03-04 15:36:00,77.0,25.9,30.01,NW,315,4.0,5.0,15,0.00,,,0.00,meteohub,2013-03-04 20:36:00,
2013-03-04 15:41:00,75.9,25.0,30.01,NW,315,3.0,5.0,15,0.00,,,0.00,meteohub,2013-03-04 20:41:00,
2013-03-04 15:46:00,75.6,36.3,30.01,East,90,4.0,5.0,24,0.00,,,0.00,meteohub,2013-03-04 20:46:00,
2013-03-04 15:51:00,73.4,36.5,30.01,North,0,2.0,7.0,26,0.00,,,0.00,meteohub,2013-03-04 20:51:00,
2013-03-04 15:56:00,73.0,37.0,30.01,North,0,2.0,8.0,27,0.00,,,0.00,meteohub,2013-03-04 20:56:00,
2013-03-04 16:02:00,72.3,38.3,30.01,East,90,7.0,8.0,29,0.00,,,0.00,meteohub,2013-03-04 21:02:00,
2013-03-04 16:07:00,72.7,38.7,30.01,NW,315,2.0,8.0,29,0.00,,,0.00,meteohub,2013-03-04 21:07:00,
2013-03-04 16:12:00,72.9,37.8,30.01,NE,45,5.0,7.0,28,0.00,,,0.00,meteohub,2013-03-04 21:12:00,
2013-03-04 16:17:00,73.0,37.9,30.01,North,0,2.0,9.0,28,0.00,,,0.00,meteohub,2013-03-04 21:17:00,
2013-03-04 16:22:00,73.6,38.5,30.01,East,90,4.0,9.0,28,0.00,,,0.00,meteohub,2013-03-04 21:22:00,
2013-03-04 16:27:00,71.8,38.7,30.01,East,90,2.0,9.0,30,0.00,,,0.00,meteohub,2013-03-04 21:27:00,
2013-03-04 16:32:00,71.8,38.7,30.01,East,90,2.0,8.0,30,0.00,,,0.00,meteohub,2013-03-04 21:32:00,
2013-03-04 16:37:00,71.2,38.3,30.01,East,90,7.0,8.0,30,0.00,,,0.00,meteohub,2013-03-04 21:37:00,
2013-03-04 16:43:00,69.4,39.0,30.01,East,90,11.0,11.0,33,0.00,,,0.00,meteohub,2013-03-04 21:43:00,
2013-03-04 16:48:00,69.3,39.7,30.01,SE,135,3.0,11.0,34,0.00,,,0.00,meteohub,2013-03-04 21:48:00,
2013-03-04 16:53:00,70.3,37.4,30.01,East,90,7.0,11.0,30,0.00,,,0.00,meteohub,2013-03-04 21:53:00,
2013-03-04 16:58:00,70.0,38.8,30.02,SE,135,4.0,11.0,32,0.00,,,0.00,meteohub,2013-03-04 21:58:00,
2013-03-04 17:03:00,70.9,39.6,30.01,North,0,2.0,9.0,32,0.00,,,0.00,meteohub,2013-03-04 22:03:00,
2013-03-04 17:09:00,70.2,38.8,30.01,East,90,5.0,8.0,32,0.00,,,0.00,meteohub,2013-03-04 22:09:00,
2013-03-04 17:14:00,69.8,39.4,30.01,North,0,2.0,9.0,33,0.00,,,0.00,meteohub,2013-03-04 22:14:00,
2013-03-04 17:19:00,70.2,39.7,30.01,East,90,8.0,9.0,33,0.00,,,0.00,meteohub,2013-03-04 22:19:00,
2013-03-04 17:24:00,69.4,39.9,30.01,East,90,6.0,9.0,34,0.00,,,0.00,meteohub,2013-03-04 22:24:00,
2013-03-04 17:29:00,69.3,39.7,30.01,NE,45,3.0,9.0,34,0.00,,,0.00,meteohub,2013-03-04 22:29:00,
2013-03-04 17:34:00,69.8,40.1,30.01,East,90,4.0,9.0,34,0.00,,,0.00,meteohub,2013-03-04 22:34:00,
2013-03-04 17:39:00,69.3,39.7,30.02,East,90,2.0,8.0,34,0.00,,,0.00,meteohub,2013-03-04 22:39:00,
2013-03-04 17:44:00,68.5,41.2,30.02,East,90,1.0,5.0,37,0.00,,,0.00,meteohub,2013-03-04 22:44:00,
2013-03-04 17:49:00,67.1,41.9,30.03,East,90,2.0,4.0,40,0.00,,,0.00,meteohub,2013-03-04 22:49:00,
2013-03-04 17:55:00,66.2,42.4,30.03,East,90,5.0,6.0,42,0.00,,,0.00,meteohub,2013-03-04 22:55:00,
2013-03-04 18:00:00,65.1,42.6,30.02,East,90,2.0,6.0,44,0.00,,,0.00,meteohub,2013-03-04 23:00:00,
2013-03-04 18:05:00,64.4,43.2,30.02,North,0,1.0,6.0,46,0.00,,,0.00,meteohub,2013-03-04 23:05:00,
2013-03-04 18:10:00,63.5,43.5,30.02,NE,45,1.0,5.0,48,0.00,,,0.00,meteohub,2013-03-04 23:10:00,
2013-03-04 18:15:00,62.8,43.9,30.03,East,90,1.0,5.0,50,0.00,,,0.00,meteohub,2013-03-04 23:15:00,
2013-03-04 18:20:00,62.1,44.2,30.03,East,90,2.0,5.0,52,0.00,,,0.00,meteohub,2013-03-04 23:20:00,
2013-03-04 18:25:00,61.5,44.2,30.03,East,90,1.0,5.0,53,0.00,,,0.00,meteohub,2013-03-04 23:25:00,
2013-03-04 18:31:00,61.3,44.6,30.03,East,90,2.0,7.0,54,0.00,,,0.00,meteohub,2013-03-04 23:31:00,
2013-03-04 18:36:00,61.2,44.4,30.04,East,90,1.0,7.0,54,0.00,,,0.00,meteohub,2013-03-04 23:36:00,
2013-03-04 18:41:00,60.6,44.4,30.04,East,90,1.0,7.0,55,0.00,,,0.00,meteohub,2013-03-04 23:41:00,
2013-03-04 18:46:00,60.1,44.8,30.04,NE,45,1.0,3.0,57,0.00,,,0.00,meteohub,2013-03-04 23:46:00,
2013-03-04 18:51:00,59.7,45.0,30.04,NE,45,0.0,2.0,58,0.00,,,0.00,meteohub,2013-03-04 23:51:00,
2013-03-04 18:56:00,59.4,44.6,30.04,NE,45,1.0,2.0,58,0.00,,,0.00,meteohub,2013-03-04 23:56:00,
2013-03-04 19:01:00,59.0,44.8,30.04,NE,45,0.0,2.0,59,0.00,,,0.00,meteohub,2013-03-05 00:01:00,
2013-03-04 19:07:00,58.5,43.7,30.04,NE,45,0.0,1.0,58,0.00,,,0.00,meteohub,2013-03-05 00:07:00,
2013-03-04 19:12:00,58.1,43.9,30.04,NE,45,0.0,1.0,59,0.00,,,0.00,meteohub,2013-03-05 00:12:00,
2013-03-04 19:17:00,57.6,43.7,30.04,NE,45,0.0,1.0,60,0.00,,,0.00,meteohub,2013-03-05 00:17:00,
2013-03-04 19:22:00,56.8,43.2,30.04,NE,45,0.0,1.0,60,0.00,,,0.00,meteohub,2013-03-05 00:22:00,
2013-03-04 19:27:00,56.5,43.2,30.04,NE,45,0.0,1.0,61,0.00,,,0.00,meteohub,2013-03-05 00:27:00,
2013-03-04 19:32:00,55.9,42.6,30.04,NE,45,0.0,0.0,61,0.00,,,0.00,meteohub,2013-03-05 00:32:00,
2013-03-04 19:37:00,55.9,43.2,30.05,NE,45,0.0,0.0,62,0.00,,,0.00,meteohub,2013-03-05 00:37:00,
2013-03-04 19:42:00,55.9,43.2,30.04,North,0,0.0,1.0,62,0.00,,,0.00,meteohub,2013-03-05 00:42:00,
2013-03-04 19:47:00,56.1,43.3,30.05,West,270,0.0,1.0,62,0.00,,,0.00,meteohub,2013-03-05 00:47:00,
2013-03-04 19:52:00,55.8,42.4,30.05,West,270,0.0,1.0,61,0.00,,,0.00,meteohub,2013-03-05 00:52:00,
2013-03-04 19:57:00,55.2,42.1,30.05,West,270,0.0,1.0,61,0.00,,,0.00,meteohub,2013-03-05 00:57:00,
2013-03-04 20:02:00,54.9,42.1,30.05,West,270,0.0,0.0,62,0.00,,,0.00,meteohub,2013-03-05 01:02:00,
2013-03-04 20:07:00,54.7,42.3,30.06,West,270,0.0,0.0,63,0.00,,,0.00,meteohub,2013-03-05 01:07:00,
2013-03-04 20:13:00,54.3,42.1,30.06,West,270,0.0,0.0,63,0.00,,,0.00,meteohub,2013-03-05 01:13:00,
2013-03-04 20:18:00,54.3,42.4,30.06,West,270,0.0,0.0,64,0.00,,,0.00,meteohub,2013-03-05 01:18:00,
2013-03-04 20:23:00,54.5,42.6,30.06,West,270,0.0,0.0,64,0.00,,,0.00,meteohub,2013-03-05 01:23:00,
2013-03-04 20:28:00,54.1,42.3,30.06,West,270,0.0,0.0,64,0.00,,,0.00,meteohub,2013-03-05 01:28:00,
2013-03-04 20:33:00,54.0,42.4,30.06,West,270,0.0,0.0,65,0.00,,,0.00,meteohub,2013-03-05 01:33:00,
2013-03-04 20:38:00,53.8,42.3,30.06,West,270,0.0,0.0,65,0.00,,,0.00,meteohub,2013-03-05 01:38:00,
2013-03-04 20:44:00,53.4,41.9,30.07,West,270,0.0,0.0,65,0.00,,,0.00,meteohub,2013-03-05 01:44:00,
2013-03-04 20:49:00,53.1,42.4,30.06,West,270,0.0,0.0,67,0.00,,,0.00,meteohub,2013-03-05 01:49:00,
2013-03-04 20:54:00,52.7,42.4,30.07,West,270,0.0,0.0,68,0.00,,,0.00,meteohub,2013-03-05 01:54:00,
2013-03-04 20:59:00,52.9,42.6,30.06,West,270,0.0,0.0,68,0.00,,,0.00,meteohub,2013-03-05 01:59:00,
2013-03-04 21:05:00,52.7,42.1,30.06,West,270,0.0,0.0,67,0.00,,,0.00,meteohub,2013-03-05 02:05:00,
2013-03-04 21:10:00,52.7,42.4,30.07,West,270,0.0,0.0,68,0.00,,,0.00,meteohub,2013-03-05 02:10:00,
2013-03-04 21:15:00,52.5,42.3,30.07,West,270,0.0,0.0,68,0.00,,,0.00,meteohub,2013-03-05 02:15:00,
2013-03-04 21:20:00,52.3,42.1,30.07,West,270,0.0,0.0,68,0.00,,,0.00,meteohub,2013-03-05 02:20:00,
2013-03-04 21:25:00,52.2,41.9,30.07,West,270,0.0,0.0,68,0.00,,,0.00,meteohub,2013-03-05 02:25:00,
2013-03-04 21:30:00,52.0,42.1,30.07,West,270,0.0,0.0,69,0.00,,,0.00,meteohub,2013-03-05 02:30:00,
2013-03-04 21:35:00,52.0,42.1,30.07,West,270,0.0,0.0,69,0.00,,,0.00,meteohub,2013-03-05 02:35:00,
2013-03-04 21:40:00,52.0,42.4,30.07,West,270,0.0,0.0,70,0.00,,,0.00,meteohub,2013-03-05 02:40:00,
2013-03-04 21:45:00,52.0,42.1,30.07,West,270,0.0,0.0,69,0.00,,,0.00,meteohub,2013-03-05 02:45:00,
2013-03-04 21:51:00,52.0,42.1,30.07,West,270,0.0,0.0,69,0.00,,,0.00,meteohub,2013-03-05 02:51:00,
2013-03-04 21:56:00,51.8,41.9,30.07,West,270,0.0,0.0,69,0.00,,,0.00,meteohub,2013-03-05 02:56:00,
2013-03-04 22:01:00,51.8,42.3,30.07,West,270,0.0,0.0,70,0.00,,,0.00,meteohub,2013-03-05 03:01:00,
2013-03-04 22:06:00,51.6,43.0,30.07,West,270,0.0,0.0,72,0.00,,,0.00,meteohub,2013-03-05 03:06:00,
2013-03-04 22:11:00,51.6,43.3,30.07,West,270,0.0,0.0,73,0.00,,,0.00,meteohub,2013-03-05 03:11:00,
2013-03-04 22:16:00,51.4,43.2,30.07,West,270,0.0,0.0,73,0.00,,,0.00,meteohub,2013-03-05 03:16:00,
2013-03-04 22:21:00,51.1,43.2,30.07,West,270,0.0,0.0,74,0.00,,,0.00,meteohub,2013-03-05 03:21:00,
2013-03-04 22:26:00,51.1,43.5,30.07,West,270,0.0,0.0,75,0.00,,,0.00,meteohub,2013-03-05 03:26:00,
2013-03-04 22:32:00,51.3,43.9,30.07,West,270,1.0,1.0,76,0.00,,,0.00,meteohub,2013-03-05 03:32:00,
2013-03-04 22:37:00,51.3,44.2,30.07,West,270,0.0,1.0,77,0.00,,,0.00,meteohub,2013-03-05 03:37:00,
2013-03-04 22:42:00,51.1,44.4,30.07,West,270,0.0,1.0,78,0.00,,,0.00,meteohub,2013-03-05 03:42:00,
2013-03-04 22:47:00,50.9,44.6,30.07,West,270,0.0,1.0,79,0.00,,,0.00,meteohub,2013-03-05 03:47:00,
2013-03-04 22:52:00,50.7,44.8,30.07,West,270,0.0,1.0,80,0.00,,,0.00,meteohub,2013-03-05 03:52:00,
2013-03-04 22:57:00,50.5,44.2,30.07,West,270,0.0,1.0,79,0.00,,,0.00,meteohub,2013-03-05 03:57:00,
2013-03-04 23:02:00,50.5,44.2,30.06,West,270,0.0,0.0,79,0.00,,,0.00,meteohub,2013-03-05 04:02:00,
2013-03-04 23:07:00,50.7,44.4,30.07,West,270,1.0,0.0,79,0.00,,,0.00,meteohub,2013-03-05 04:07:00,
2013-03-04 23:12:00,50.5,44.2,30.06,West,270,0.0,1.0,79,0.00,,,0.00,meteohub,2013-03-05 04:12:00,
2013-03-04 23:17:00,50.5,43.9,30.06,West,270,0.0,1.0,78,0.00,,,0.00,meteohub,2013-03-05 04:17:00,
2013-03-04 23:22:00,50.5,43.9,30.07,West,270,0.0,1.0,78,0.00,,,0.00,meteohub,2013-03-05 04:22:00,
2013-03-04 23:27:00,50.7,44.4,30.06,West,270,1.0,1.0,79,0.00,,,0.00,meteohub,2013-03-05 04:27:00,
2013-03-04 23:32:00,50.7,44.4,30.06,West,270,0.0,1.0,79,0.00,,,0.00,meteohub,2013-03-05 04:32:00,
2013-03-04 23:37:00,50.9,44.6,30.07,West,270,0.0,1.0,79,0.00,,,0.00,meteohub,2013-03-05 04:37:00,
2013-03-04 23:42:00,51.1,45.1,30.06,West,270,0.0,1.0,80,0.00,,,0.00,meteohub,2013-03-05 04:42:00,
2013-03-04 23:47:00,50.9,45.0,30.07,West,270,0.0,1.0,80,0.00,,,0.00,meteohub,2013-03-05 04:47:00,
2013-03-04 23:52:00,50.5,44.6,30.07,West,270,0.0,1.0,80,0.00,,,0.00,meteohub,2013-03-05 04:52:00,
2013-03-04 23:58:00,50.4,44.8,30.07,West,270,0.0,1.0,81,0.00,,,0.00,meteohub,2013-03-05 04:58:00,